[[{"header":{"parameterUnit":"m.s-1","parameterCategory":1,"la1":30.2991,"la2":30.254,"lo1":-89.0895,"lo2":-89.0444,"dy":0.0017,"dx":0.0017,"nx":28,"ny":28,"refTime":"2023-09-06T21:00:00:Z","depth":0,"parameterNumber":2,"parameterNumberName":"U-component_of_WINDS"},"data":[0,0,0,0,0,0,0,0,0,0,0,0,0,0,0,0,0,0,0,0,0,0,0,0,0,0,0,0,0,0,0,0,0,0,0,0,0,0,0,0,0,0,0,0,0,0,0,0,0,0,0,0,0,0,0,0,0,0,0.3509,0.351,0,0.3564,0.3564,0.3565,0.3561,0.356,0.3559,0.3559,0.3615,0.3617,0.3619,0,0,0,0,0,0,0,0,0,0,0,0,0,0.3403,0.3405,0.3509,0.351,0.3511,0.3563,0.3564,0.3565,0.3561,0.356,0.3559,0.3558,0.3614,0.3617,0.3619,0,0,0,0,0,0,0,0,0,0,0,0,0,0.3452,0.3406,0.3509,0.3515,0.3516,0.3563,0.3564,0.3565,0.3561,0.356,0.3559,0.3558,0.3613,0.3616,0.362,0.3665,0,0,0.363,0.3631,0,0,0,0,0,0,0,0,0.345,0.3456,0.3513,0.3515,0.3516,0.3554,0.3547,0.3599,0.3562,0.3544,0.3559,0.3557,0.3596,0.36,0.3613,0.3667,0.367,0.363,0.3632,0.3634,0.3635,0,0,0,0,0,0,0,0.3446,0.3454,0.3531,0.3514,0.3516,0.3515,0.3521,0.3557,0.3576,0.3546,0.3546,0.3552,0.3596,0.361,0.3614,0.367,0.363,0.3633,0.3635,0.3637,0.3766,0.3767,0,0,0,0,0,0,0.3441,0.3451,0.3529,0.3532,0.3479,0.3518,0.3525,0.3543,0.3576,0.3579,0.3553,0.3552,0.3605,0.3611,0.3616,0.3672,0.3634,0.3637,0.3639,0.3764,0.3766,0.3767,0,0,0,0,0,0,0.3439,0.3448,0.3527,0.3492,0.3502,0.3521,0.3542,0.3545,0.3559,0.3581,0.3585,0.3564,0.3604,0.3612,0.3653,0.3674,0.3638,0.3641,0.3763,0.3765,0.3767,0.3784,0,0,0,0,0,0,0.3436,0.3448,0.3464,0.3492,0.3504,0.3562,0.3544,0.3547,0.3565,0.3563,0.3592,0.3596,0.3604,0.3648,0.3656,0.3678,0.3644,0.3761,0.3764,0.3766,0.3781,0.3786,0.379,0,0,0,0,0,0.3432,0.3467,0.3465,0.3475,0.3525,0.3563,0.357,0.3578,0.3566,0.3584,0.3598,0.3595,0.367,0.3652,0.3662,0.3685,0.3759,0.3763,0.3766,0.3779,0.3785,0.379,0,0,0,0,0,0,0.3441,0.347,0.3469,0.3514,0.3536,0.3563,0.3585,0.3584,0.361,0.3608,0.3618,0.3624,0.3666,0.3679,0.3659,0.3731,0.3713,0.3719,0.372,0.3726,0.373,0.3727,0.3647,0,0,0,0,0,0.3448,0.3476,0.3501,0.3538,0.3549,0.3565,0.3582,0.3587,0.361,0.362,0.3637,0.366,0.369,0.3708,0.3736,0.3783,0.379,0.3804,0.3808,0.3812,0.3816,0.3843,0.385,0.3778,0.3778,0.3778,0,0,0.3463,0.3482,0.35,0.354,0.3558,0.3587,0.3573,0.3604,0.3627,0.3624,0.3665,0.3679,0.3705,0.375,0.377,0.3762,0.3838,0.3816,0.3818,0.3821,0.3847,0.3854,0.386,0.378,0.378,0.3779,0,0,0.3505,0.3522,0.3556,0.3574,0.3602,0.3612,0.362,0.3647,0.3657,0.3697,0.3696,0.3723,0.3773,0.3792,0.3809,0.386,0.3858,0.3869,0.3892,0.3918,0.3924,0.3929,0.3949,0.3955,0.3873,0.3873,0.3873,0,0.352,0.3565,0.3573,0.3605,0.3624,0.3623,0.3657,0.3675,0.371,0.3723,0.3713,0.3776,0.3794,0.3844,0.3856,0.3869,0.388,0.3866,0.3922,0.3928,0.3933,0.3951,0.3958,0.3874,0.3874,0.3874,0.3874,0,0.3582,0.3613,0.3637,0.3672,0.3692,0.3725,0.3739,0.3759,0.3762,0.3774,0.3816,0.3838,0.3871,0.3883,0.3886,0.3933,0.3928,0.392,0.3903,0.3941,0.3958,0.3965,0.3876,0.3875,0.3875,0.3875,0,0,0.3631,0.3671,0.368,0.3696,0.3726,0.3751,0.3784,0.3817,0.3834,0.3859,0.3888,0.393,0.3924,0.3942,0.3948,0.3971,0.4012,0.3961,0.3962,0.397,0.4067,0.4073,0.4081,0.401,0.4012,0.4013,0.4065,0,0.3678,0.3737,0.3746,0.3799,0.3828,0.3829,0.3858,0.388,0.3893,0.392,0.3933,0.3964,0.3952,0.3964,0.3986,0.4002,0.4031,0.3998,0.4038,0.404,0.4033,0.409,0.4097,0.4145,0.4072,0.4073,0.4074,0,0.374,0.3767,0.3822,0.385,0.3863,0.3889,0.392,0.3946,0.3971,0.3979,0.4,0.4003,0.4039,0.402,0.407,0.4047,0.4064,0.4074,0.4076,0.4081,0.406,0.4098,0.416,0.4168,0.4085,0.4084,0.4083,0,0.3772,0.3821,0.3861,0.3875,0.3908,0.3927,0.3942,0.3966,0.3986,0.4013,0.4026,0.4057,0.4074,0.4098,0.411,0.4095,0.4159,0.4141,0.4167,0.4167,0.4181,0.418,0.4249,0.4191,0.4191,0.419,0.419,0,0.3823,0.3857,0.3876,0.3901,0.394,0.395,0.3988,0.4003,0.4025,0.4053,0.4055,0.4081,0.4094,0.4123,0.4132,0.4173,0.418,0.4188,0.419,0.4188,0.4187,0.42,0.4197,0.4192,0.4192,0.4192,0.4191,0,0.3865,0.3879,0.3923,0.3951,0.3959,0.3987,0.4011,0.4036,0.4048,0.4083,0.4092,0.4112,0.4146,0.416,0.4201,0.4207,0.4254,0.4253,0.4246,0.4247,0.4273,0.427,0.4352,0.4364,0.4297,0.4298,0.4298,0,0.3897,0.3924,0.3955,0.3974,0.399,0.402,0.404,0.4051,0.4072,0.4104,0.4125,0.4159,0.4187,0.4241,0.4259,0.4291,0.4292,0.4318,0.4297,0.4295,0.4294,0.4293,0.4296,0.4323,0.4323,0.4324,0.4324,0,0.3953,0.3959,0.3988,0.402,0.4043,0.4069,0.4093,0.4109,0.4124,0.4148,0.4183,0.4204,0.4247,0.4281,0.4314,0.433,0.433,0.4331,0.4339,0.4338,0.4333,0.4337,0.4258,0.4329,0.4329,0.4328,0.4328,0.4328,0.3992,0.4016,0.4043,0.4075,0.4095,0.4118,0.4143,0.4159,0.4188,0.4224,0.4229,0.4266,0.4293,0.4338,0.4355,0.4385,0.4378,0.4389,0.4392,0.4395,0.4398,0.4327,0.4391,0.4391,0.4391,0.439,0.439,0,0.405,0.4067,0.4096,0.4131,0.4157,0.4155,0.4182,0.4204,0.4237,0.4262,0.4289,0.433,0.4363,0.4384,0.4418,0.4438,0.444,0.4447,0.4446,0.445,0.4401,0.4391,0.4446,0.4446,0.4446,0.4446,0.4446,0.4446,0.4082,0.4124,0.4133,0.4184,0.4201,0.4238,0.4255,0.4277,0.4296,0.4342,0.437,0.4383,0.4407,0.4443,0.4473,0.4479,0.4492,0.45,0.4505,0.4459,0.4453,0.4448,0.4439,0.4502,0.4503,0.4552,0.4552,0.4553]},{"header":{"parameterUnit":"m.s-1","parameterCategory":1,"la1":30.2991,"la2":30.254,"lo1":-89.0895,"lo2":-89.0444,"dy":0.0017,"dx":0.0017,"nx":28,"ny":28,"refTime":"2023-09-06T21:00:00:Z","depth":0,"parameterNumber":3,"parameterNumberName":"V-component_of_WINDS"},"data":[0,0,0,0,0,0,0,0,0,0,0,0,0,0,0,0,0,0,0,0,0,0,0,0,0,0,0,0,0,0,0,0,0,0,0,0,0,0,0,0,0,0,0,0,0,0,0,0,0,0,0,0,0,0,0,0,0,0,-1.4913,-1.4914,0,-1.4977,-1.4978,-1.4978,-1.4957,-1.4955,-1.4954,-1.4952,-1.5019,-1.5022,-1.5025,0,0,0,0,0,0,0,0,0,0,0,0,0,-1.4774,-1.4777,-1.4913,-1.4914,-1.4915,-1.4977,-1.4978,-1.4978,-1.4957,-1.4955,-1.4953,-1.4952,-1.5018,-1.5022,-1.5026,0,0,0,0,0,0,0,0,0,0,0,0,0,-1.4836,-1.4777,-1.4913,-1.4911,-1.4912,-1.4977,-1.4978,-1.4979,-1.4957,-1.4955,-1.4953,-1.4951,-1.5017,-1.5022,-1.5026,-1.5097,0,0,-1.504,-1.5042,0,0,0,0,0,0,0,0,-1.4832,-1.4841,-1.4911,-1.4911,-1.4912,-1.4956,-1.4953,-1.5018,-1.4958,-1.494,-1.4952,-1.495,-1.5,-1.5006,-1.5023,-1.51,-1.5103,-1.5041,-1.5043,-1.5045,-1.5047,0,0,0,0,0,0,0,-1.4828,-1.4838,-1.4938,-1.4912,-1.4913,-1.4908,-1.4914,-1.4965,-1.4981,-1.4941,-1.494,-1.4948,-1.5,-1.5018,-1.5024,-1.5104,-1.5041,-1.5045,-1.5048,-1.5049,-1.5243,-1.5245,0,0,0,0,0,0,-1.4823,-1.4835,-1.4936,-1.494,-1.4866,-1.4912,-1.4919,-1.4944,-1.498,-1.4984,-1.4949,-1.4946,-1.5011,-1.5019,-1.5026,-1.5112,-1.5045,-1.505,-1.5052,-1.5241,-1.5243,-1.5246,0,0,0,0,0,0,-1.482,-1.4832,-1.4934,-1.4887,-1.4899,-1.4917,-1.4945,-1.4947,-1.4965,-1.4987,-1.4989,-1.4965,-1.501,-1.502,-1.5079,-1.5114,-1.5052,-1.5056,-1.5238,-1.5241,-1.5245,-1.5283,0,0,0,0,0,0,-1.4816,-1.4831,-1.4858,-1.4888,-1.4902,-1.4985,-1.4947,-1.495,-1.4973,-1.4969,-1.5002,-1.5005,-1.5009,-1.5073,-1.5084,-1.5119,-1.506,-1.5235,-1.5239,-1.5244,-1.5279,-1.5288,-1.5295,0,0,0,0,0,-1.4811,-1.4867,-1.486,-1.4872,-1.4936,-1.4987,-1.4995,-1.4998,-1.4976,-1.5003,-1.5017,-1.5004,-1.5108,-1.5079,-1.5092,-1.5129,-1.5233,-1.5238,-1.5243,-1.5275,-1.5286,-1.5295,0,0,0,0,0,0,-1.4841,-1.487,-1.4863,-1.4929,-1.4956,-1.4983,-1.5018,-1.5009,-1.5044,-1.5039,-1.5042,-1.5049,-1.5111,-1.5126,-1.5092,-1.5199,-1.5167,-1.5175,-1.5187,-1.5197,-1.5205,-1.52,-1.5064,0,0,0,0,0,-1.4855,-1.4894,-1.4918,-1.4974,-1.4988,-1.5001,-1.5023,-1.5023,-1.5051,-1.5062,-1.5081,-1.5109,-1.5148,-1.5173,-1.521,-1.5281,-1.5288,-1.5313,-1.5321,-1.5327,-1.5334,-1.5373,-1.5385,-1.5263,-1.5263,-1.5263,0,0,-1.4885,-1.4906,-1.493,-1.4981,-1.5001,-1.5042,-1.501,-1.5055,-1.5085,-1.5069,-1.5127,-1.5141,-1.5173,-1.5238,-1.5268,-1.5252,-1.5369,-1.5334,-1.5339,-1.5343,-1.538,-1.5391,-1.5402,-1.5267,-1.5266,-1.5266,0,0,-1.496,-1.498,-1.5029,-1.505,-1.5082,-1.509,-1.5102,-1.5131,-1.514,-1.5197,-1.5186,-1.5223,-1.529,-1.5313,-1.5333,-1.5417,-1.5407,-1.543,-1.5472,-1.551,-1.5519,-1.5528,-1.5558,-1.5569,-1.5436,-1.5437,-1.5437,0,-1.4993,-1.5054,-1.5055,-1.5101,-1.5123,-1.511,-1.5161,-1.5181,-1.5224,-1.524,-1.5222,-1.5306,-1.5326,-1.5397,-1.5418,-1.5435,-1.5449,-1.5426,-1.5518,-1.5526,-1.5534,-1.5563,-1.5575,-1.5439,-1.5439,-1.5438,-1.5438,0,-1.5093,-1.5135,-1.5171,-1.5212,-1.5239,-1.5286,-1.5296,-1.5323,-1.5321,-1.5331,-1.539,-1.5414,-1.5456,-1.5473,-1.5471,-1.5544,-1.5533,-1.5516,-1.5484,-1.5548,-1.5576,-1.5587,-1.5443,-1.5442,-1.5441,-1.544,0,0,-1.5189,-1.523,-1.5243,-1.5261,-1.5295,-1.5328,-1.5375,-1.5416,-1.5439,-1.5469,-1.5509,-1.5566,-1.5551,-1.5575,-1.5575,-1.5609,-1.5675,-1.5588,-1.5589,-1.5604,-1.5757,-1.5769,-1.5782,-1.5668,-1.567,-1.5672,-1.5754,0,-1.5267,-1.5349,-1.5352,-1.5428,-1.5467,-1.5455,-1.5497,-1.5522,-1.5533,-1.5569,-1.5581,-1.5622,-1.5599,-1.5613,-1.5645,-1.566,-1.5705,-1.5654,-1.5706,-1.5708,-1.5699,-1.5796,-1.581,-1.5886,-1.5765,-1.5767,-1.5768,0,-1.5369,-1.5401,-1.5481,-1.5509,-1.5526,-1.5563,-1.56,-1.5634,-1.5663,-1.5669,-1.5695,-1.5692,-1.5741,-1.5707,-1.5775,-1.574,-1.5761,-1.5772,-1.5775,-1.578,-1.5742,-1.5805,-1.5911,-1.5922,-1.5785,-1.5784,-1.5782,0,-1.5431,-1.5494,-1.555,-1.5566,-1.5601,-1.5627,-1.5643,-1.567,-1.5694,-1.5728,-1.5743,-1.5782,-1.5803,-1.5834,-1.5841,-1.5815,-1.5909,-1.5876,-1.5916,-1.5916,-1.5936,-1.5935,-1.6048,-1.595,-1.595,-1.595,-1.5949,0,-1.5518,-1.5567,-1.5578,-1.5613,-1.5668,-1.5671,-1.5725,-1.5739,-1.5764,-1.5801,-1.5794,-1.5829,-1.5836,-1.5873,-1.5879,-1.5935,-1.5945,-1.5951,-1.5952,-1.5952,-1.5951,-1.5966,-1.5961,-1.5953,-1.5952,-1.5951,-1.5951,0,-1.5596,-1.5606,-1.5666,-1.5694,-1.5702,-1.5741,-1.5766,-1.5799,-1.5809,-1.5857,-1.5868,-1.5884,-1.5928,-1.5938,-1.5989,-1.5993,-1.606,-1.6056,-1.605,-1.605,-1.6089,-1.6086,-1.6216,-1.6234,-1.6124,-1.6125,-1.6126,0,-1.5651,-1.5689,-1.572,-1.5745,-1.5762,-1.5801,-1.5825,-1.583,-1.5856,-1.5893,-1.5922,-1.5964,-1.5998,-1.6069,-1.6086,-1.6125,-1.6122,-1.6165,-1.6128,-1.6127,-1.6123,-1.6121,-1.6125,-1.6172,-1.6173,-1.6174,-1.6175,0,-1.5748,-1.5751,-1.5786,-1.5824,-1.5853,-1.5883,-1.5912,-1.5932,-1.5941,-1.5971,-1.6015,-1.6042,-1.6094,-1.6137,-1.6177,-1.6194,-1.6187,-1.6187,-1.6198,-1.6198,-1.6194,-1.6197,-1.6069,-1.6184,-1.6183,-1.6182,-1.6182,-1.6181,-1.5816,-1.5849,-1.5877,-1.5917,-1.5939,-1.5966,-1.5998,-1.6013,-1.6049,-1.6092,-1.6093,-1.6141,-1.617,-1.6223,-1.6242,-1.6281,-1.6268,-1.6284,-1.6288,-1.6293,-1.6296,-1.6187,-1.6288,-1.6288,-1.6288,-1.6287,-1.6287,0,-1.5913,-1.593,-1.5967,-1.6007,-1.6039,-1.6028,-1.6059,-1.6087,-1.6129,-1.6156,-1.619,-1.6241,-1.6282,-1.6303,-1.6344,-1.6371,-1.6368,-1.6381,-1.638,-1.6384,-1.6305,-1.6292,-1.6383,-1.6383,-1.6383,-1.6383,-1.6383,-1.6383,-1.5967,-1.6022,-1.6028,-1.6095,-1.6112,-1.6158,-1.6177,-1.6202,-1.6224,-1.6281,-1.6315,-1.6328,-1.6353,-1.6396,-1.6434,-1.6439,-1.6454,-1.6469,-1.6473,-1.6399,-1.6389,-1.638,-1.6367,-1.6473,-1.6473,-1.6548,-1.6549,-1.6549]}]]